This is the latest recevied weather packets stored in our database for station/object YM2KRB-11. If no packets are shown the sender has not sent any weather packets the latest 10 day(s).
| Time | Temp. | Humidity | Pressure | Rain* | Wind** | Luminosity | Snow |
|---|---|---|---|---|---|---|---|
| 1777714870 | 12.78° C | 54% | 942.7 hPa | - | - | - | - |
| 1777713668 | 11.67° C | 57% | 942.9 hPa | - | - | - | - |
| 1777712467 | 11.67° C | 59% | 942.9 hPa | - | - | - | - |
| 1777711266 | 12.78° C | 50% | 942.8 hPa | - | - | - | - |
| 1777710066 | 18.33° C | 47% | 942.9 hPa | - | - | - | - |
| 1777708865 | 13.89° C | 52% | 943.1 hPa | - | - | - | - |
| 1777707664 | 16.11° C | 48% | 943.3 hPa | - | - | - | - |
| 1777706463 | 16.11° C | 49% | 943.4 hPa | - | - | - | - |
| 1777705263 | 12.78° C | 54% | 943.4 hPa | - | - | - | - |
| 1777704062 | 12.22° C | 48% | 943.3 hPa | - | - | - | - |
| 1777702860 | 16.11° C | 46% | 943.6 hPa | - | - | - | - |
| 1777701660 | 11.67° C | 53% | 943.7 hPa | - | - | - | - |
| 1777700459 | 12.22° C | 55% | 943.5 hPa | - | - | - | - |
| 1777699258 | 10.56° C | 54% | 943.6 hPa | - | - | - | - |
| 1777698057 | 11.11° C | 59% | 943.6 hPa | - | - | - | - |
| 1777696856 | 10.56° C | 54% | 943.4 hPa | - | - | - | - |
| 1777695656 | 7.78° C | 61% | 943.1 hPa | - | - | - | - |
| 1777694455 | 7.78° C | 63% | 943.4 hPa | - | - | - | - |
| 1777693254 | 7.78° C | 65% | 943.6 hPa | - | - | - | - |
| 1777692053 | 8.33° C | 62% | 943.5 hPa | - | - | - | - |
| 1777690853 | 7.78° C | 62% | 943.5 hPa | - | - | - | - |
| 1777689652 | 7.78° C | 63% | 943.4 hPa | - | - | - | - |
| 1777688451 | 7.78° C | 62% | 943.4 hPa | - | - | - | - |
| 1777687250 | 9.44° C | 57% | 943.5 hPa | - | - | - | - |
| 1777686049 | 8.33° C | 61% | 943.5 hPa | - | - | - | - |
* Rain since midnight (hover to see other rain measurements)
** Current wind speed in m/s (hover to see current wind gust speed)